sat.trackr.live / text

‹ back to catalog

STARLINK-2609

NORAD 48373 · 2021-038W

PAYLOAD ACTIVE UNKNOWN

§ Identity

Operator
Country
US
Launch date
2021-05-04
Launch site
AFETR
Launch vehicle
Mass (kg)
RCS (m²)

Purposes: comms

External: N2YO · Heavens-Above · Gunter

§ Orbital elements

Epoch: 2026-09-08T22:01:41.509920Z

Period
94.01 min
Inclination
53.1603°
Eccentricity
0.0001082
Mean motion
15.31711819 rev/d
Perigee alt
470.0 km
Apogee alt
471.4 km
Semi-major
6,848.8 km
B*
6.0631e-5
RAAN
212.7888°
Arg perigee
89.7750°
Mean anomaly
270.3375°
Rev number
29,533

§ Raw data

STARLINK-26091 48373U 21038W   26251.91784155  .00001517  00000+0  60631-4 0  99982 48373  53.1603 212.7888 0001082  89.7750 270.3375 15.31711819295334

JSON: /api/v1/satellites/48373 · /tle

For live sub-satellite position, see the globe view (requires WebGL).

§ Visibility from observer

Set your observer location to see the next 7 days of passes ≥ 10°. The values pass through the URL so the page stays shareable.

No JS? Fill the form by hand. The geolocation button needs JavaScript.